Tiempo cada hora Bururi

Hoy, 20 Octubre, Martes

Tiempo Temperatura Precipitaciones Viento Presión Humedad
00:00 +19°C° 0 mm 1 mps 615 mmHg 76%
01:00 +19°C° 0 mm 1 mps 615 mmHg 76%
02:00 +18°C° 0 mm 1 mps 614 mmHg 76%
03:00 +18°C° 0 mm 1 mps 614 mmHg 75%
04:00 +18°C° 0 mm 1 mps 614 mmHg 74%
05:00 +18°C° 0 mm 1 mps 614 mmHg 73%
06:00 +20°C° 0 mm 1 mps 615 mmHg 67%
07:00 +22°C° 0 mm 1 mps 617 mmHg 62%
08:00 +23°C° 0 mm 1 mps 618 mmHg 57%
09:00 +24°C° 0.3 mm 1 mps 618 mmHg 56%
10:00 +25°C° 0.3 mm 1 mps 618 mmHg 55%
11:00 +25°C° 0.3 mm 2 mps 618 mmHg 54%
12:00 +25°C° 1.1 mm 2 mps 617 mmHg 59%
13:00 +24°C° 1.1 mm 2 mps 615 mmHg 63%
14:00 +23°C° 1.1 mm 2 mps 614 mmHg 67%
15:00 +23°C° 1 mm 1 mps 614 mmHg 71%
16:00 +22°C° 1 mm 1 mps 614 mmHg 74%
17:00 +21°C° 1 mm 1 mps 614 mmHg 77%
18:00 +21°C° 1.1 mm 1 mps 615 mmHg 79%
19:00 +20°C° 1.1 mm 1 mps 615 mmHg 81%
20:00 +20°C° 1.1 mm 1 mps 616 mmHg 83%
21:00 +18°C° 0.7 mm 2 mps 616 mmHg 84%
22:00 +18°C° 0.7 mm 2 mps 616 mmHg 84%
23:00 +18°C° 0.7 mm 2 mps 616 mmHg 84%

Mañana, 21 Octubre, Miércoles

Tiempo Temperatura Precipitaciones Viento Presión Humedad
00:00 +17°C° 0.8 mm 2 mps 616 mmHg 86%
01:00 +17°C° 0.8 mm 2 mps 615 mmHg 87%
02:00 +17°C° 0.8 mm 2 mps 615 mmHg 88%
03:00 +17°C° 0.4 mm 2 mps 615 mmHg 88%
04:00 +17°C° 0.4 mm 2 mps 615 mmHg 87%
05:00 +17°C° 0.4 mm 2 mps 615 mmHg 87%
06:00 +17°C° 0.7 mm 2 mps 616 mmHg 87%
07:00 +17°C° 0.7 mm 2 mps 616 mmHg 87%
08:00 +19°C° 0.7 mm 1 mps 617 mmHg 87%
09:00 +19°C° 0.9 mm 1 mps 617 mmHg 87%
10:00 +19°C° 0.9 mm 1 mps 617 mmHg 86%
11:00 +20°C° 0.9 mm 1 mps 617 mmHg 85%
12:00 +19°C° 1.6 mm 1 mps 616 mmHg 88%
13:00 +19°C° 1.6 mm 1 mps 616 mmHg 90%
14:00 +18°C° 1.6 mm 1 mps 615 mmHg 92%
15:00 +18°C° 1.2 mm 1 mps 615 mmHg 94%
16:00 +18°C° 1.2 mm 1 mps 615 mmHg 95%
17:00 +18°C° 1.2 mm 1 mps 615 mmHg 96%
18:00 +18°C° 0.2 mm 1 mps 615 mmHg 96%
19:00 +18°C° 0.2 mm 1 mps 616 mmHg 96%
20:00 +18°C° 0.2 mm 1 mps 616 mmHg 95%
21:00 +16°C° 0 mm 1 mps 616 mmHg 93%
22:00 +16°C° 0 mm 1 mps 616 mmHg 91%
23:00 +16°C° 0 mm 1 mps 616 mmHg 90%

Pasado mañana, 22 Octubre, Jueves

Tiempo Temperatura Precipitaciones Viento Presión Humedad
00:00 +16°C° 0.1 mm 1 mps 616 mmHg 88%
01:00 +18°C° 0.1 mm 1 mps 616 mmHg 87%
02:00 +18°C° 0.1 mm 1 mps 615 mmHg 86%
03:00 +16°C° 0.1 mm 1 mps 615 mmHg 85%
04:00 +15°C° 0.1 mm 0 mps 616 mmHg 85%
05:00 +15°C° 0.1 mm 0 mps 616 mmHg 85%
06:00 +16°C° 0.2 mm 0 mps 616 mmHg 83%
07:00 +19°C° 0.2 mm 1 mps 617 mmHg 82%
08:00 +19°C° 0.2 mm 1 mps 618 mmHg 81%
09:00 +21°C° 0.6 mm 1 mps 618 mmHg 78%
10:00 +21°C° 0.6 mm 2 mps 618 mmHg 74%
11:00 +23°C° 0.6 mm 2 mps 618 mmHg 71%
12:00 +21°C° 1.2 mm 2 mps 617 mmHg 73%
13:00 +21°C° 1.2 mm 2 mps 616 mmHg 75%
14:00 +21°C° 1.2 mm 2 mps 615 mmHg 77%
15:00 +21°C° 0.5 mm 2 mps 615 mmHg 78%
16:00 +21°C° 0.5 mm 1 mps 615 mmHg 80%
17:00 +21°C° 0.5 mm 1 mps 615 mmHg 81%
18:00 +20°C° 0.8 mm 1 mps 615 mmHg 82%
19:00 +19°C° 0.8 mm 1 mps 616 mmHg 84%
20:00 +18°C° 0.8 mm 1 mps 616 mmHg 85%
21:00 +18°C° 0 mm 1 mps 616 mmHg 83%
22:00 +18°C° 0 mm 1 mps 616 mmHg 82%
23:00 +18°C° 0 mm 1 mps 616 mmHg 80%

23 Octubre, Viernes

Tiempo Temperatura Precipitaciones Viento Presión Humedad
00:00 +18°C° 0 mm 1 mps 615 mmHg 80%
01:00 +18°C° 0 mm 1 mps 615 mmHg 79%
02:00 +18°C° 0 mm 1 mps 614 mmHg 79%
03:00 +16°C° 0 mm 1 mps 615 mmHg 79%
04:00 +16°C° 0 mm 1 mps 615 mmHg 79%
05:00 +16°C° 0 mm 1 mps 615 mmHg 78%
06:00 +19°C° 0.1 mm 1 mps 616 mmHg 76%
07:00 +20°C° 0.1 mm 1 mps 617 mmHg 74%
08:00 +20°C° 0.1 mm 2 mps 618 mmHg 71%
09:00 +21°C° 0.4 mm 2 mps 618 mmHg 69%
10:00 +23°C° 0.4 mm 2 mps 618 mmHg 66%
11:00 +24°C° 0.4 mm 2 mps 618 mmHg 64%
12:00 +24°C° 0.3 mm 2 mps 617 mmHg 62%
13:00 +24°C° 0.3 mm 2 mps 616 mmHg 61%
14:00 +25°C° 0.3 mm 3 mps 616 mmHg 60%
15:00 +24°C° 0.1 mm 2 mps 615 mmHg 62%
16:00 +24°C° 0.1 mm 2 mps 615 mmHg 64%
17:00 +23°C° 0.1 mm 1 mps 615 mmHg 67%
18:00 +22°C° 0 mm 1 mps 615 mmHg 69%
19:00 +21°C° 0 mm 1 mps 616 mmHg 71%
20:00 +20°C° 0 mm 1 mps 616 mmHg 73%
21:00 +20°C° 0 mm 1 mps 616 mmHg 72%
22:00 +19°C° 0 mm 1 mps 616 mmHg 72%
23:00 +19°C° 0 mm 1 mps 616 mmHg 72%

24 Octubre, Sábado

Tiempo Temperatura Precipitaciones Viento Presión Humedad
00:00 +19°C° 0 mm 1 mps 615 mmHg 72%
01:00 +19°C° 0 mm 1 mps 615 mmHg 73%
02:00 +18°C° 0 mm 1 mps 614 mmHg 73%
03:00 +18°C° 0 mm 1 mps 615 mmHg 73%
04:00 +18°C° 0 mm 1 mps 615 mmHg 74%
05:00 +18°C° 0 mm 1 mps 615 mmHg 74%
06:00 +20°C° 0 mm 1 mps 616 mmHg 70%
07:00 +21°C° 0 mm 1 mps 617 mmHg 65%
08:00 +23°C° 0 mm 1 mps 618 mmHg 61%
09:00 +24°C° 0.5 mm 1 mps 618 mmHg 61%
10:00 +24°C° 0.5 mm 2 mps 618 mmHg 61%
11:00 +25°C° 0.5 mm 2 mps 617 mmHg 61%
12:00 +25°C° 0.8 mm 2 mps 617 mmHg 60%
13:00 +25°C° 0.8 mm 2 mps 616 mmHg 60%
14:00 +25°C° 0.8 mm 2 mps 615 mmHg 59%
15:00 +24°C° 0.8 mm 2 mps 615 mmHg 64%
16:00 +23°C° 0.8 mm 1 mps 615 mmHg 69%
17:00 +23°C° 0.8 mm 1 mps 615 mmHg 74%
18:00 +22°C° 0.2 mm 1 mps 615 mmHg 75%
19:00 +21°C° 0.2 mm 1 mps 615 mmHg 77%
20:00 +20°C° 0.2 mm 1 mps 615 mmHg 79%
21:00 +20°C° 0 mm 1 mps 615 mmHg 78%
22:00 +19°C° 0 mm 1 mps 616 mmHg 78%
23:00 +19°C° 0 mm 1 mps 616 mmHg 78%

25 Octubre, Domingo

Tiempo Temperatura Precipitaciones Viento Presión Humedad
00:00 +19°C° 0 mm 1 mps 615 mmHg 78%
01:00 +19°C° 0 mm 1 mps 615 mmHg 78%
02:00 +19°C° 0 mm 1 mps 614 mmHg 77%
03:00 +18°C° 0 mm 1 mps 614 mmHg 78%
04:00 +18°C° 0 mm 1 mps 614 mmHg 78%
05:00 +18°C° 0 mm 1 mps 615 mmHg 78%
06:00 +20°C° 0 mm 1 mps 615 mmHg 74%
07:00 +21°C° 0 mm 1 mps 616 mmHg 69%
08:00 +23°C° 0 mm 1 mps 617 mmHg 65%
09:00 +24°C° 0.4 mm 1 mps 617 mmHg 62%
10:00 +24°C° 0.4 mm 2 mps 617 mmHg 60%
11:00 +25°C° 0.4 mm 2 mps 617 mmHg 58%
12:00 +25°C° 0.9 mm 2 mps 616 mmHg 59%
13:00 +25°C° 0.9 mm 2 mps 615 mmHg 60%
14:00 +25°C° 0.9 mm 2 mps 615 mmHg 61%
15:00 +24°C° 0.8 mm 2 mps 615 mmHg 65%
16:00 +23°C° 0.8 mm 2 mps 614 mmHg 69%
17:00 +23°C° 0.8 mm 1 mps 614 mmHg 73%
18:00 +21°C° 0.5 mm 1 mps 615 mmHg 75%
19:00 +20°C° 0.5 mm 1 mps 615 mmHg 78%
20:00 +19°C° 0.5 mm 1 mps 615 mmHg 81%
21:00 +19°C° 0.1 mm 1 mps 615 mmHg 81%
22:00 +19°C° 0.1 mm 1 mps 615 mmHg 81%
23:00 +18°C° 0.1 mm 1 mps 615 mmHg 80%

26 Octubre, Lunes

Tiempo Temperatura Precipitaciones Viento Presión Humedad
00:00 +18°C° 0 mm 1 mps 615 mmHg 80%
01:00 +18°C° 0 mm 1 mps 614 mmHg 80%
02:00 +18°C° 0 mm 1 mps 614 mmHg 81%
03:00 +18°C° 0 mm 1 mps 614 mmHg 81%
04:00 +18°C° 0 mm 1 mps 614 mmHg 81%
05:00 +18°C° 0 mm 1 mps 614 mmHg 81%
06:00 +19°C° 0 mm 1 mps 615 mmHg 76%
07:00 +21°C° 0 mm 1 mps 616 mmHg 70%
08:00 +21°C° 0 mm 0 mps 617 mmHg 64%
09:00 +24°C° 0.5 mm 1 mps 617 mmHg 62%
10:00 +24°C° 0.5 mm 2 mps 617 mmHg 60%
11:00 +25°C° 0.5 mm 2 mps 617 mmHg 59%
12:00 +25°C° 1 mm 2 mps 616 mmHg 60%
13:00 +25°C° 1 mm 2 mps 615 mmHg 61%
14:00 +25°C° 1 mm 2 mps 615 mmHg 63%
15:00 +24°C° 1 mm 2 mps 614 mmHg 67%
16:00 +23°C° 1 mm 2 mps 614 mmHg 70%
17:00 +22°C° 1 mm 1 mps 614 mmHg 74%
18:00 +21°C° 0.6 mm 1 mps 614 mmHg 76%
19:00 +20°C° 0.6 mm 1 mps 614 mmHg 79%
20:00 +19°C° 0.6 mm 1 mps 615 mmHg 81%
21:00 +19°C° 0.5 mm 1 mps 615 mmHg 83%
22:00 +19°C° 0.5 mm 1 mps 615 mmHg 85%
23:00 +17°C° 0.5 mm 2 mps 615 mmHg 86%
Mostrar más

Necesitamos Su Consentimiento

Meteoprog y nuestros Proveedores de Servicios pueden almacenar y acceder a sus datos personales como cookies, identificadores de dispositivo u otras tecnologías similares de su dispositivo y procesar dichos datos para personalizar contenido y anuncios, además de ofrecer funciones de redes sociales y analizar el tráfico.

  • Almacenar y/o acceder a información en su dispositivo

    Se puede almacenar o acceder a cookies, identificadores de dispositivo u otra información de su dispositivo para los fines anteriormente indicados.

  • Anuncios y contenido personalizados, medición de anuncios y contenido, percepciones del público, y desarrollo de productos

    Los anuncios y el contenido pueden personalizarse en base a su perfil. Se pueden añadir más datos para personalizar mejor los anuncios y contenidos. Se puede medir el rendimiento de los anuncios y contenidos. Se puede obtener la percepción sobre el público que ha visto los anuncios y contenidos. Dichos datos pueden usarse para desarrollar o mejorar la experiencia del usuario, sistemas y software.

Al hacer clic en ‘Estoy De Acuerdo’ usted permitirá el uso de las cookies, identificadores de dispositivo, balizas web u otras tecnologías similares indicadas. Su configuración puede cambiarse desde el navegador de su dispositivo.

Para ciertos fines, los intereses legítimos pueden ser considerados por encima del consentimiento. Puede leer más sobre ello en nuestra Política de Privacidad y Cookies.